TimeEET,TemperatureF,Dew PointF,Humidity,Sea Level PressureIn,VisibilityMPH,Wind Direction,Wind SpeedMPH,Gust SpeedMPH,PrecipitationIn,Events,Conditions,WindDirDegrees,DateUTC
12:00 AM,73.4,68.0,83,29.80,-9999.0,South,2.3,-,N/A,,Clear,170,2013-09-18 22:00:00
1:00 AM,71.6,68.0,88,29.80,-9999.0,South,3.5,-,N/A,,Clear,170,2013-09-18 23:00:00
2:00 AM,72,69,85,29.80,6,SSE,4.6,,,,,160,2013-09-19 00:00:00
2:00 AM,71.6,68.0,88,29.80,-9999.0,SSE,4.6,-,N/A,,Clear,160,2013-09-19 00:00:00
3:00 AM,69.8,66.2,88,29.77,-9999.0,South,3.5,-,N/A,,Clear,180,2013-09-19 01:00:00
4:00 AM,69.8,68.0,94,29.77,-9999.0,SSE,2.3,-,N/A,,Clear,150,2013-09-19 02:00:00
5:00 AM,69.8,68.0,94,29.80,-9999.0,East,2.3,-,N/A,,Clear,100,2013-09-19 03:00:00
6:00 AM,71.6,68.0,88,29.77,-9999.0,SSE,6.9,-,N/A,,Clear,150,2013-09-19 04:00:00
7:00 AM,75.2,64.4,69,29.77,-9999.0,SE,8.1,-,N/A,,Clear,140,2013-09-19 05:00:00
8:00 AM,83,62,39,29.80,6,South,10.4,,,,,190,2013-09-19 06:00:00
8:00 AM,84.2,62.6,48,29.80,-9999.0,South,10.4,-,N/A,,Clear,190,2013-09-19 06:00:00
9:00 AM,87.8,57.2,35,29.80,-9999.0,South,11.5,-,N/A,,Clear,190,2013-09-19 07:00:00
10:00 AM,93.2,51.8,24,29.77,-9999.0,South,10.4,-,N/A,,Clear,190,2013-09-19 08:00:00
11:00 AM,96.8,48.2,19,29.77,-9999.0,SSW,4.6,-,N/A,,Clear,200,2013-09-19 09:00:00
12:00 PM,98.6,48.2,18,29.77,-9999.0,WSW,2.3,-,N/A,,Clear,250,2013-09-19 10:00:00
1:00 PM,98.6,48.2,18,29.74,-9999.0,West,4.6,-,N/A,,Clear,260,2013-09-19 11:00:00
2:00 PM,94,68,33,29.73,6,NNE,4.6,,,,,20,2013-09-19 12:00:00
2:00 PM,93.2,68.0,44,29.71,-9999.0,NNE,4.6,-,N/A,,Clear,20,2013-09-19 12:00:00
3:00 PM,93.2,68.0,44,29.68,-9999.0,North,11.5,-,N/A,,Clear,10,2013-09-19 13:00:00
4:00 PM,91.4,68.0,46,29.65,-9999.0,NNE,11.5,-,N/A,,Clear,30,2013-09-19 14:00:00
5:00 PM,89.6,68.0,49,29.65,-9999.0,North,9.2,-,N/A,,Clear,10,2013-09-19 15:00:00
6:00 PM,86.0,71.6,62,29.65,-9999.0,NNE,4.6,-,N/A,,Clear,20,2013-09-19 16:00:00
7:00 PM,84.2,71.6,66,29.68,-9999.0,NNE,6.9,-,N/A,,Clear,20,2013-09-19 17:00:00
8:00 PM,83,74,68,29.69,6,Calm,Calm,,,,,,2013-09-19 18:00:00
8:00 PM,84.2,73.4,70,29.68,-9999.0,Calm,Calm,-,N/A,,Clear,0,2013-09-19 18:00:00
9:00 PM,82.4,73.4,74,29.68,-9999.0,Calm,Calm,-,N/A,,Clear,0,2013-09-19 19:00:00
10:00 PM,78.8,73.4,83,29.68,-9999.0,Calm,Calm,-,N/A,,Clear,0,2013-09-19 20:00:00
11:00 PM,77.0,71.6,83,29.68,-9999.0,Calm,Calm,-,N/A,,Clear,0,2013-09-19 21:00:00